Weather History for KHYX - December, 2013

Change the Weather History Date:

Sunday, December 8, 2013

  Actual Average (KMBS) Record (KMBS)
Temperature  
Mean Temperature 18 °F 30 °F  
Max Temperature 26 °F 36 °F 44 °F (1999)
Min Temperature 10 °F 24 °F 1 °F (2005)
Degree Days  
Heating Degree Days 47    
Month to date heating degree days  
Since 1 July heating degree days  
Cooling Degree Days 0    
Month to date cooling degree days  
Year to date cooling degree days  
Moisture  
Dew Point 13 °F    
Average Humidity 79    
Maximum Humidity 100    
Minimum Humidity 54    
Precipitation  
Precipitation 0.00 in 0.06 in 0.16 in (2008)
Month to date precipitation 0.54  
Year to date precipitation 30.22  
Snow  
Snow 0.00 in - - ()
Month to date snowfall  
Since 1 July snowfall  
Snow Depth -    
Sea Level Pressure  
Sea Level Pressure 30.37 in    
Wind  
Wind Speed 4 mph (East)    
Max Wind Speed 12 mph    
Max Gust Speed -    
Visibility 9 miles    
Events Snow    
T = Trace of Precipitation, MM = Missing Value Source: NWS Daily Summary

Daily Weather History Graph

Daily Weather History Graph

Search for Another Location

Airport or City:

Trip Planner

Search our weather history database for the weather conditions in past years. The results will help you decide how hot, cold, wet, or windy it might be!

Date:

Astronomy

Dec. 08, 2013 Rise Set
Actual Time 7:55 AM EST 4:59 PM EST
Civil Twilight 7:23 AM EST 5:31 PM EST
Nautical Twilight 6:47 AM EST 6:07 PM EST
Astronomical Twilight 6:12 AM EST 6:42 PM EST
Moon 12:07 PM EST (12/8) 11:56 PM EST (12/8)
Length of Visible Light 10h 08m
Length of Day
9h 03m
Waxing Crescent, 40% of the Moon is Illuminated
Dec 8
Waxing Crescent
Dec 9
First Quarter
Dec 17
Full
Dec 25
Last Quarter
Jan 1
New

Hourly Weather History & Observations

Time (EST) Temp. Windchill Dew Point Humidity Pressure Visibility Wind Dir Wind Speed Gust Speed Precip Events Conditions
12:15 AM 12.2 °F 6.1 °F 6.8 °F 79% 30.58 in 10.0 mi SW 3.5 mph - N/A   Clear
12:35 AM 12.2 °F 4.3 °F 5.0 °F 73% 30.57 in 10.0 mi SSW 4.6 mph - N/A   Clear
12:55 AM 10.4 °F - 6.8 °F 85% 30.56 in 10.0 mi Calm Calm - N/A   Clear
1:15 AM 10.4 °F - 6.8 °F 85% 30.56 in 10.0 mi Calm Calm - N/A   Clear
1:35 AM 10.4 °F - 6.8 °F 85% 30.55 in 10.0 mi Calm Calm - N/A   Clear
1:55 AM 12.2 °F - 6.8 °F 79% 30.55 in 10.0 mi Calm Calm - N/A   Clear
2:15 AM 12.2 °F - 8.6 °F 85% 30.55 in 10.0 mi Calm Calm - N/A   Clear
2:35 AM 10.4 °F - 5.0 °F 79% 30.55 in 10.0 mi Calm Calm - N/A   Clear
2:55 AM 10.4 °F - 6.8 °F 85% 30.55 in 10.0 mi Calm Calm - N/A   Clear
3:15 AM 10.4 °F - 8.6 °F 92% 30.56 in 10.0 mi Calm Calm - N/A   Clear
3:35 AM 10.4 °F 2.2 °F 6.8 °F 85% 30.56 in 10.0 mi SSW 4.6 mph - N/A   Clear
3:55 AM 12.2 °F 4.3 °F 6.8 °F 79% 30.57 in 10.0 mi SSW 4.6 mph - N/A   Clear
4:15 AM 10.4 °F 2.2 °F 6.8 °F 85% 30.56 in 10.0 mi SW 4.6 mph - N/A   Clear
4:35 AM 10.4 °F 2.2 °F 6.8 °F 85% 30.56 in 10.0 mi WSW 4.6 mph - N/A   Clear
4:55 AM 10.4 °F 2.2 °F 6.8 °F 85% 30.56 in 10.0 mi WSW 4.6 mph - N/A   Clear
5:15 AM 10.4 °F - 6.8 °F 85% 30.56 in 10.0 mi Calm Calm - N/A   Clear
5:35 AM 10.4 °F - 8.6 °F 92% 30.56 in 10.0 mi Calm Calm - N/A   Clear
5:55 AM 12.2 °F - 8.6 °F 85% 30.54 in 10.0 mi Calm Calm - N/A   Scattered Clouds
6:15 AM 12.2 °F - 8.6 °F 85% 30.53 in 10.0 mi Calm Calm - N/A   Mostly Cloudy
6:35 AM 12.2 °F - 8.6 °F 85% 30.54 in 10.0 mi Calm Calm - N/A   Mostly Cloudy
6:55 AM 14.0 °F - 10.4 °F 86% 30.54 in 10.0 mi Calm Calm - N/A   Mostly Cloudy
7:15 AM 14.0 °F - 10.4 °F 86% 30.52 in 10.0 mi Calm Calm - N/A   Mostly Cloudy
7:35 AM 14.0 °F - 10.4 °F 86% 30.52 in 10.0 mi Calm Calm - N/A   Overcast
7:55 AM 14.0 °F - 10.4 °F 86% 30.51 in 10.0 mi Calm Calm - N/A   Overcast
8:15 AM 14.0 °F - 10.4 °F 86% 30.51 in 10.0 mi Calm Calm - N/A   Overcast
8:35 AM 14.0 °F - 10.4 °F 86% 30.52 in 10.0 mi Calm Calm - N/A   Mostly Cloudy
8:55 AM 14.0 °F - 10.4 °F 86% 30.51 in 10.0 mi Calm Calm - N/A   Mostly Cloudy
9:15 AM 14.0 °F 8.2 °F 10.4 °F 86% 30.49 in 10.0 mi ENE 3.5 mph - N/A   Mostly Cloudy
9:35 AM 15.8 °F - 10.4 °F 79% 30.51 in 10.0 mi Calm Calm - N/A   Mostly Cloudy
9:55 AM 15.8 °F - 10.4 °F 79% 30.50 in 10.0 mi Calm Calm - N/A   Scattered Clouds
10:15 AM 17.6 °F - 10.4 °F 73% 30.50 in 10.0 mi Calm Calm - N/A   Clear
10:35 AM 17.6 °F 12.3 °F 10.4 °F 73% 30.49 in 10.0 mi East 3.5 mph - N/A   Scattered Clouds
10:55 AM 17.6 °F - 12.2 °F 79% 30.49 in 10.0 mi Calm Calm - N/A   Mostly Cloudy
11:15 AM 19.4 °F 12.8 °F 10.4 °F 68% 30.48 in 10.0 mi ESE 4.6 mph - N/A   Overcast
11:35 AM 19.4 °F 9.5 °F 12.2 °F 74% 30.46 in 10.0 mi ENE 8.1 mph - N/A   Mostly Cloudy
11:55 AM 19.4 °F 10.4 °F 12.2 °F 74% 30.44 in 10.0 mi East 6.9 mph - N/A   Mostly Cloudy
12:15 PM 21.2 °F 14.9 °F 10.4 °F 63% 30.43 in 10.0 mi East 4.6 mph - N/A   Mostly Cloudy
12:35 PM 21.2 °F 12.6 °F 10.4 °F 63% 30.43 in 10.0 mi East 6.9 mph - N/A   Mostly Cloudy
12:55 PM 21.2 °F 12.6 °F 10.4 °F 63% 30.42 in 10.0 mi ESE 6.9 mph - N/A   Overcast
1:15 PM 21.2 °F 12.6 °F 10.4 °F 63% 30.40 in 10.0 mi East 6.9 mph - N/A   Mostly Cloudy
1:35 PM 21.2 °F 13.6 °F 10.4 °F 63% 30.39 in 10.0 mi ENE 5.8 mph - N/A   Overcast
1:55 PM 21.2 °F 11.7 °F 10.4 °F 63% 30.37 in 10.0 mi ENE 8.1 mph - N/A   Overcast
2:15 PM 23.0 °F 14.7 °F 10.4 °F 59% 30.36 in 10.0 mi ENE 6.9 mph - N/A   Overcast
2:35 PM 23.0 °F 13.9 °F 10.4 °F 59% 30.35 in 10.0 mi ENE 8.1 mph - N/A   Overcast
2:55 PM 23.0 °F 13.9 °F 10.4 °F 59% 30.34 in 10.0 mi ENE 8.1 mph - N/A   Overcast
3:14 PM 23.0 °F 12.4 °F 8.6 °F 54% 30.32 in 10.0 mi ENE 10.4 mph - N/A   Overcast
3:35 PM 23.0 °F 12.4 °F 10.4 °F 59% 30.31 in 10.0 mi ENE 10.4 mph - N/A   Overcast
3:55 PM 23.0 °F 11.7 °F 10.4 °F 59% - 10.0 mi East 11.5 mph - N/A   Overcast
4:14 PM 23.0 °F 12.4 °F 10.4 °F 59% 30.28 in 10.0 mi ENE 10.4 mph - N/A   Overcast
4:35 PM 23.0 °F 12.4 °F 12.2 °F 63% 30.26 in 10.0 mi East 10.4 mph - N/A   Overcast
4:55 PM 23.0 °F 12.4 °F 14.0 °F 68% 30.25 in 10.0 mi East 10.4 mph - N/A   Overcast
5:14 PM 23.0 °F 12.4 °F 14.0 °F 68% 30.24 in 10.0 mi East 10.4 mph - N/A Snow Light Snow
5:35 PM 24.8 °F 16.1 °F 15.8 °F 69% 30.24 in 10.0 mi ENE 8.1 mph - N/A Snow Light Snow
5:55 PM 23.0 °F 13.1 °F 17.6 °F 80% 30.22 in 2.0 mi ENE 9.2 mph - N/A Snow Light Snow
6:14 PM 23.0 °F 12.4 °F 17.6 °F 80% 30.21 in 4.0 mi East 10.4 mph - N/A Snow Light Snow
6:35 PM 23.0 °F 13.9 °F 19.4 °F 86% 30.21 in 3.0 mi East 8.1 mph - N/A Snow Light Snow
6:55 PM 23.0 °F 15.8 °F 19.4 °F 86% 30.19 in 2.5 mi East 5.8 mph - N/A Snow Light Snow
7:15 PM 23.0 °F 15.8 °F 19.4 °F 86% 30.17 in 4.0 mi East 5.8 mph - N/A Snow Light Snow
7:35 PM 23.0 °F 14.7 °F 21.2 °F 93% 30.16 in 5.0 mi ENE 6.9 mph - N/A Snow Light Snow
7:55 PM 24.8 °F 17.9 °F 21.2 °F 86% 30.15 in 7.0 mi ENE 5.8 mph - N/A Snow Light Snow
8:15 PM 24.8 °F 16.9 °F 21.2 °F 86% 30.12 in 4.0 mi ENE 6.9 mph - N/A Snow Light Snow
8:35 PM 24.8 °F 16.9 °F 23.0 °F 93% 30.12 in 10.0 mi ENE 6.9 mph - N/A Snow Light Snow
8:55 PM 24.8 °F 16.9 °F 23.0 °F 93% 30.10 in 5.0 mi ENE 6.9 mph - N/A Snow Light Snow
9:15 PM 26.6 °F 17.5 °F 23.0 °F 86% 30.09 in 7.0 mi ENE 9.2 mph - N/A Snow Light Snow
9:35 PM 26.6 °F 18.2 °F 23.0 °F 86% 30.07 in 5.0 mi East 8.1 mph - N/A Snow Light Snow
9:55 PM 26.6 °F 17.5 °F 23.0 °F 86% 30.05 in 7.0 mi East 9.2 mph - N/A Snow Light Snow
10:15 PM 26.6 °F 16.8 °F 23.0 °F 86% 30.04 in 5.0 mi East 10.4 mph - N/A Snow Light Snow
10:35 PM 26.6 °F 18.2 °F 23.0 °F 86% 30.04 in 7.0 mi East 8.1 mph - N/A Snow Light Snow
10:55 PM 26.6 °F 18.2 °F 23.0 °F 86% 30.02 in 4.0 mi East 8.1 mph - N/A Snow Light Snow
11:15 PM 26.6 °F 18.2 °F 23.0 °F 86% 30.01 in 2.0 mi East 8.1 mph - N/A Snow Light Snow
11:35 PM 26.6 °F 19.1 °F 24.8 °F 93% 30.00 in 1.8 mi East 6.9 mph - N/A Snow Light Snow
11:55 PM 26.6 °F 18.2 °F 26.6 °F 100% 29.98 in 2.5 mi East 8.1 mph - N/A Snow Light Snow